EW7899 Weather Reports


Display with metric or nautical units.
time (UTC)temp
F
wind
direction
speed
MPH
gust
MPH
rain 1hr
in
rain 24hr
in
rain mn
in
humidity
%
barometer
mb
20260906164508 64 359 3.0 8.0 0.00 0.00 0.00 71 1015.4
20260906163016 64 133 2.0 8.0 0.00 0.00 0.00 71 1015.4
20260906161504 64 359 1.0 5.0 0.00 0.00 0.00 75 1015.6
20260906160014 63 312 0.0 11.0 0.00 0.00 0.00 74 1015.8
20260906154510 62 335 0.0 4.0 0.00 0.00 0.00 76 1015.8
20260906153014 62 329 0.0 4.0 0.00 0.00 0.00 78 1016.1
20260906151523 62 320 8.0 13.0 0.00 0.00 0.00 75 1016.3
20260906150013 62 35 1.0 10.0 0.00 0.00 0.00 77 1016.1
20260906144505 60 359 3.0 8.0 0.00 0.00 0.00 78 1016.2
20260906143012 59 359 4.0 14.0 0.00 0.00 0.00 84 1016.2
20260906141520 59 359 0.0 6.0 0.00 0.00 0.00 84 1016.2
20260906140016 58 359 0.0 4.0 0.00 0.00 0.00 85 1016.2
20260906134536 58 359 0.0 4.0 0.00 0.00 0.00 87 1016.2
20260906133008 57 359 0.0 1.0 0.00 0.00 0.00 87 1016.1
20260906131517 56 359 0.0 7.0 0.00 0.00 0.00 87 1016.1
20260906130003 56 359 1.0 6.0 0.00 0.00 0.00 88 1016.0
20260906124512 56 359 0.0 0.0 0.00 0.00 0.00 89 1016.0
20260906123002 56 359 0.0 5.0 0.00 0.00 0.00 89 1015.9
20260906121514 55 141 0.0 2.0 0.00 0.00 0.00 89 1015.9
20260906120005 55 134 0.0 5.0 0.00 0.00 0.00 89 1015.6
20260906114514 54 359 0.0 6.0 0.00 0.00 0.00 89 1015.5
20260906113023 54 359 2.0 6.0 0.00 0.00 0.00 91 1015.3
20260906111512 54 126 1.0 5.0 0.00 0.00 0.00 93 1015.0
20260906110021 54 116 0.0 1.0 0.00 0.00 0.00 93 1014.6
20260906104509 54 96 0.0 0.0 0.00 0.00 0.00 94 1014.7
20260906103025 54 96 0.0 0.0 0.00 0.00 0.00 94 1014.4
20260906101507 54 96 0.0 0.0 0.00 0.00 0.00 94 1014.3
20260906100019 53 95 0.0 0.0 0.00 0.00 0.00 95 1014.2
20260906094508 53 310 0.0 0.0 0.00 0.00 0.00 95 1014.1
20260906093014 53 310 0.0 4.0 0.00 0.00 0.00 95 1014.0
20260906091525 53 310 0.0 0.0 0.00 0.00 0.00 95 1013.7
20260906090013 53 310 0.0 0.0 0.00 0.00 0.00 95 1013.7
20260906084522 53 310 0.0 0.0 0.00 0.00 0.00 95 1013.4
20260906083009 53 359 0.0 0.0 0.00 0.00 0.00 95 1013.3
20260906081520 52 310 0.0 0.0 0.00 0.00 0.00 95 1013.0
20260906080012 52 359 0.0 0.0 0.00 0.00 0.00 95 1013.1
20260906074523 52 310 0.0 0.0 0.00 0.00 0.00 95 1013.2
20260906073017 52 359 0.0 0.0 0.00 0.00 0.00 94 1013.1
20260906071517 52 214 0.0 0.0 0.00 0.00 0.00 94 1013.0
20260906070008 52 212 0.0 0.0 0.00 0.00 0.00 94 1012.9
20260906064516 52 214 0.0 0.0 0.00 0.00 0.00 94 1012.9
20260906063007 52 214 0.0 0.0 0.00 0.00 0.00 94 1012.9
20260906061517 52 214 0.0 0.0 0.00 0.00 0.00 94 1012.9
20260906060009 52 333 0.0 0.0 0.00 0.00 0.00 93 1013.0
20260906054513 52 334 0.0 0.0 0.00 0.00 0.00 92 1012.9
20260906053005 53 333 0.0 0.0 0.00 0.00 0.00 92 1012.9
20260906051517 53 333 0.0 0.0 0.00 0.00 0.00 91 1013.0
20260906050005 54 359 0.0 0.0 0.00 0.00 0.00 92 1012.8
20260906044516 55 334 0.0 0.0 0.00 0.00 0.00 91 1012.8
20260906043025 55 334 0.0 0.0 0.00 0.00 0.00 90 1012.8
20260906041521 56 359 0.0 0.0 0.00 0.00 0.00 90 1012.8
20260906040026 57 334 0.0 0.0 0.00 0.00 0.00 89 1012.7
20260906034512 57 334 0.0 0.0 0.00 0.00 0.00 88 1012.6
20260906033019 59 333 0.0 0.0 0.00 0.00 0.00 86 1012.5
20260906031510 59 334 0.0 0.0 0.00 0.00 0.00 84 1012.3
20260906030021 60 359 0.0 0.0 0.00 0.00 0.00 83 1012.4
20260906024507 60 334 0.0 4.0 0.00 0.00 0.00 82 1012.4
20260906023021 60 145 0.0 5.0 0.00 0.00 0.00 82 1012.5
20260906021505 61 97 0.0 6.0 0.00 0.00 0.00 84 1012.5
20260906020012 61 258 1.0 4.0 0.00 0.00 0.00 86 1012.5
20260906014522 61 95 0.0 0.0 0.00 0.00 0.00 88 1012.3
20260906013027 61 104 0.0 0.0 0.00 0.00 0.00 90 1012.3
20260906011508 61 76 0.0 0.0 0.00 0.00 0.00 90 1012.3
20260906010022 61 75 0.0 0.0 0.00 0.00 0.00 91 1012.2
20260906004525 61 76 0.0 0.0 0.00 0.00 0.00 91 1012.0
20260906003011 61 76 0.0 0.0 0.00 0.00 0.00 90 1011.8
20260906001521 62 4 0.0 0.0 0.00 0.00 0.00 90 1011.7
20260906000010 62 4 0.0 0.0 0.00 0.00 0.00 90 1011.7
20260905234517 62 4 0.0 0.0 0.00 0.00 0.00 90 1011.5
20260905233024 63 4 0.0 0.0 0.00 0.00 0.00 89 1011.5
20260905231506 63 4 0.0 0.0 0.00 0.00 0.00 87 1011.8
20260905230016 63 8 0.0 0.0 0.00 0.00 0.00 87 1011.5
20260905224522 63 359 0.0 0.0 0.00 0.00 0.00 87 1011.5
20260905223023 64 249 0.0 0.0 0.00 0.00 0.00 86 1011.4
20260905221517 64 359 0.0 0.0 0.00 0.00 0.00 86 1011.2
20260905220012 64 359 0.0 8.0 0.00 0.00 0.00 84 1011.0
20260905214520 64 359 2.0 6.0 0.00 0.00 0.00 86 1010.9
20260905213005 64 146 0.0 0.0 0.00 0.00 0.00 87 1010.6
20260905211526 64 359 0.0 1.0 0.00 0.00 0.00 86 1010.7
20260905210022 64 359 0.0 0.0 0.00 0.00 0.00 85 1010.6
20260905204514 64 359 0.0 5.0 0.00 0.00 0.00 83 1010.5
20260905203003 65 359 5.0 10.0 0.00 0.00 0.00 80 1010.5
20260905201517 66 308 0.0 10.0 0.00 0.00 0.00 83 1010.3
20260905200006 66 330 1.0 8.0 0.00 0.00 0.00 81 1010.2
20260905194514 65 327 4.0 10.0 0.00 0.00 0.00 84 1010.2
20260905193008 65 337 0.0 1.0 0.00 0.00 0.00 85 1010.2
20260905191519 64 322 6.0 12.0 0.00 0.00 0.00 85 1010.3
20260905190007 64 349 0.0 1.0 0.00 0.00 0.00 87 1010.4
20260905184521 65 125 0.0 4.0 0.00 0.00 0.00 86 1010.3
20260905183007 67 175 0.0 6.0 0.00 0.00 0.00 79 1010.3
20260905181515 67 336 0.0 2.0 0.00 0.00 0.00 79 1010.2
20260905180007 67 322 6.0 11.0 0.00 0.00 0.00 79 1010.2
20260905174518 67 295 1.0 5.0 0.00 0.00 0.00 78 1010.2
20260905173006 66 10 3.0 9.0 0.00 0.00 0.00 81 1010.3
20260905171525 66 329 0.0 2.0 0.00 0.00 0.00 84 1010.3
20260905170005 65 50 0.0 0.0 0.00 0.00 0.00 84 1010.5